This demonstration page uses our WeatherBlox Daily Observations layout. Learn more.

Left ArrowRight Arrow

38.20091, -84.87328

Hourly Observations for April 4, 2016

Temp ( °F °C ) Dew Point ( °F °C ) Humidity (%) Winds ( mph kmh ) Pressure ( in mb ) Visibility ( mi km ) Precip ( " mm )
12:53 am 00:53 Clear 56 13.3 33 0.6 42 42 SW 20 31 29.93 1013 10 16 0.00 0.00
1:53 am 01:53 Clear 55 12.8 33 0.6 44 44 SSW 16 26 29.92 1013 10 16 0.00 0.00
2:53 am 02:53 Clear 55 12.8 33 0.6 44 44 SW 14 22 29.91 1013 10 16 0.00 0.00
3:53 am 03:53 Clear 55 12.8 33 0.6 44 44 SW 14 22 29.90 1012 10 16 0.00 0.00
4:53 am 04:53 Clear 54 12.2 33 0.6 45 45 SW 16 26 29.89 1012 10 16 0.00 0.00
5:53 am 05:53 Clear 54 12.2 34 1.1 47 47 SW 15 24 29.88 1012 10 16 0.00 0.00
6:53 am 06:53 Cloudy 55 12.8 35 1.7 47 47 SW 17 28 29.89 1012 10 16 0.00 0.00
7:53 am 07:53 Partly Cloudy 55 12.8 35 1.7 47 47 SW 15 24 29.89 1012 10 16 0.00 0.00
8:53 am 08:53 Sunny 58 14.4 37 2.8 46 46 SW 15 24 29.90 1013 10 16 0.00 0.00
9:53 am 09:53 Mostly Cloudy 60 15.6 38 3.3 44 44 SW 16 26 29.90 1013 10 16 0.00 0.00
10:53 am 10:53 Mostly Cloudy 61 16.1 38 3.3 43 43 SW 14 22 29.91 1013 10 16 0.00 0.00
11:53 am 11:53 Sunny 63 17.2 40 4.4 43 43 WSW 15 24 29.92 1013 10 16 0.00 0.00
12:53 pm 12:53 Mostly Sunny 67 19.4 42 5.6 41 41 W 14 22 29.93 1014 10 16 0.00 0.00
1:53 pm 13:53 Mostly Sunny 69 20.6 43 6.1 39 39 W 9 15 29.92 1013 10 16 0.00 0.00
2:53 pm 14:53 Mostly Sunny 69 20.6 41 5 36 36 W 14 22 29.92 1013 10 16 0.00 0.00
3:22 pm 15:22 Mostly Sunny 69 20.6 44 6.7 41 41 WNW 16 26 29.91 1013 10 16 0.00 0.00
3:53 pm 15:53 Sunny 67 19.4 42 5.6 41 41 NNW 16 26 29.94 1014 10 16 0.00 0.00
4:53 pm 16:53 Sunny 64 17.8 33 0.6 32 32 WNW 18 30 29.97 1015 10 16 0.00 0.00
5:53 pm 17:53 Sunny 61 16.1 34 1.1 36 36 NW 17 28 30.00 1016 10 16 0.00 0.00
6:53 pm 18:53 Sunny 55 12.8 34 1.1 45 45 NW 17 28 30.06 1018 10 16 0.00 0.00
7:53 pm 19:53 Sunny 46 7.8 31 -0.6 56 56 NNW 23 37 30.13 1020 10 16 0.00 0.00
8:53 pm 20:53 Clear 43 6.1 30 -1.1 60 60 NNW 17 28 30.18 1022 10 16 0.00 0.00
9:38 pm 21:38 Cloudy 43 6.1 30 -1.1 60 60 NNW 14 22 30.24 1024 10 16 0.00 0.00
9:53 pm 21:53 Cloudy 42 5.6 29 -1.7 60 60 NW 14 22 30.21 1023 10 16 0.00 0.00
10:40 pm 22:40 Mostly Cloudy 41 5 29 -1.7 62 62 NNW 10 17 30.27 1025 10 16 0.00 0.00
10:53 pm 22:53 Cloudy 41 5 28 -2.2 60 60 NNW 8 13 30.24 1024 10 16 0.00 0.00
11:53 pm 23:53 Cloudy 40 4.4 27 -2.8 60 60 NNW 13 20 30.26 1025 10 16 0.00 0.00

Powered by AerisWeather